Torna al catalogo

KUIPER-00033

AttivoComunicazioniLEO
NORAD 63746·PAYLOAD·🇺🇸 United States

Lanciato Apr 28, 2025 da Cape Canaveral Space Force Station

Loading…

Prossimi Passaggi (prossime 24 ore)

TLE

AggiornatoSource: CelesTrak SupGP

Epoca: Sep 14, 2026, 19:10 UTC

1 63746C 25088Y   26257.79885417  .00007320  00000+0  95819-3 0  2573
2 63746  51.9018   9.3449 0000322 101.2651 184.0485 14.79926768    14

Traccia KUIPER-00033 in tempo reale con AllMySat

Download on the App Store